Location: Sinnemahoning State Park
(41.4031°N, 78.0230°W)
Time: 04:37:45
(UTC-04:00)

Daily predictions for brighter satellites

Satellite Brightness Start Highest point End
(mag) Time Altitude Azimuth Time Altitude Azimuth Time Altitude Azimuth
Cosmos 1452 Rocket 4.5 00:00:19 10° NW 00:05:04 35° W 00:05:36 34° WSW
Cosmos 2239 Rocket 4.5 00:00:59 10° N 00:07:08 67° E 00:08:02 59° SE
CZ-2C R/B 3.3 00:02:30 10° NNE 00:07:38 43° E 00:07:38 43° E
Cosmos 1821 Rocket 3.9 00:08:16 10° N 00:14:34 76° E 00:15:31 64° SE
Cosmos 2360 4.0 00:09:29 10° NNW 00:15:15 88° WSW 00:15:40 78° SSE
Cosmos 1758 Rocket 4.1 00:16:25 54° NNE 00:16:25 54° NNE 00:19:52 10° NNE
H-2A R/B 4.1 00:18:44 19° W 00:18:58 19° W 00:22:11 10° NW
Cosmos 2098 Rocket 4.4 00:15:53 10° NNE 00:19:41 33° ENE 00:19:41 33° ENE
Cosmos 2251 Rocket 4.1 00:22:11 44° E 00:22:11 44° E 00:26:40 10° NNE
Cosmos 1697 Rocket 3.5 00:17:01 10° NW 00:22:09 37° WSW 00:22:23 37° WSW
SL-16 R/B 2.7 00:19:26 10° NNW 00:24:57 48° ENE 00:25:49 45° E
Cosmos 1953 3.3 00:23:55 10° NNW 00:26:58 46° NW 00:26:58 46° NW
Cosmos 1271 Rocket 4.5 00:26:15 10° NNW 00:28:44 27° WNW 00:28:44 27° WNW
USA 267 3.3 00:25:32 10° NE 00:32:05 76° NW 00:36:00 26° WSW
Meteor 2-5 Rocket 4.1 00:36:55 54° E 00:37:05 54° E 00:42:52 10° NNE
Cosmos 1605 Rocket 4.0 00:31:04 10° N 00:37:06 60° E 00:37:46 57° ESE
NOSS 3-1 (C) 4.2 00:33:28 10° NNW 00:41:02 69° NE 00:44:20 39° ESE
ALOS 2 3.1 00:42:00 59° N 00:42:00 59° N 00:45:36 10° NNW
Cosmos 1535 Rocket 4.4 00:35:14 10° NNW 00:41:19 71° W 00:41:56 66° SW
Cosmos 1953 Rocket 4.3 00:42:35 51° NW 00:42:35 51° NW 00:46:27 10° N
SeaSat 1 2.5 00:43:22 76° NW 00:43:22 76° NW 00:47:58 10° NNW
USA 32 4.0 00:51:52 75° ENE 00:51:52 75° ENE 00:56:53 10° N
Lacrosse 5 rocket 3.1 00:50:08 10° NNW 00:54:23 33° NE 00:55:36 29° ENE
CZ-4B R/B 4.1 00:58:28 16° NNE 00:58:28 16° NNE 00:59:28 10° NNE
Cosmos 972 Rocket 4.2 00:54:18 10° NNW 00:58:56 58° WNW 00:58:56 58° WNW
ATLAS CENTAUR R/B 2.9 00:57:09 10° NNW 00:59:14 30° N 00:59:14 30° N
USA 229 DEB 4.2 00:58:58 10° NW 01:05:43 45° WSW 01:06:04 45° WSW
USA 229 4.2 00:59:04 10° NW 01:05:49 46° WSW 01:06:10 45° WSW
Geosat 4.2 01:00:53 10° NNE 01:05:18 62° ENE 01:05:18 62° ENE
USA 234 3.5 01:02:44 29° ESE 01:06:13 65° NE 01:12:41 10° NW
Meteor 2-15 4.3 01:07:15 75° SE 01:07:40 79° E 01:13:44 10° N
Cosmos 2360 Rocket 3.0 01:03:06 10° NNW 01:08:31 44° ENE 01:09:45 38° E
Cosmos 1980 Rocket 3.6 01:04:44 10° NW 01:08:49 25° W 01:08:49 25° W
NOSS 3-1 (A) 4.1 01:05:06 10° NNW 01:12:46 79° NE 01:15:54 43° SE
Lacrosse 5 2.3 01:14:08 52° ENE 01:14:08 52° ENE 01:18:04 10° NE
CZ-2C R/B 3.6 01:13:35 48° W 01:13:35 48° W 01:18:47 10° NNW
Meteor 1-16 Rocket 4.0 01:09:07 10° NNW 01:14:23 81° WNW 01:14:23 81° WNW
Cosmos 494 Rocket 4.5 01:17:27 49° WNW 01:17:38 49° WNW 01:22:39 10° N
Cosmos 2322 Rocket 2.3 01:13:17 10° NNW 01:18:37 62° W 01:18:37 62° W
H-2A R/B 4.0 01:16:19 10° NNE 01:19:07 29° ENE 01:19:07 29° ENE
Cosmos 1459 Rocket 4.4 01:14:26 10° N 01:20:40 53° ENE 01:21:54 47° ESE
ISS -0.5 01:19:04 10° NNW 01:20:54 14° N 01:22:43 10° NE
Meteor 1-24 Rocket 3.7 01:25:08 78° SSE 01:25:30 84° E 01:31:34 10° N
Cosmos 1802 Rocket 4.5 01:22:13 10° N 01:28:21 51° ENE 01:29:38 44° ESE
Meteor 2-15 Rocket 4.2 01:28:37 75° SSW 01:29:09 84° W 01:35:16 10° N
Cosmos 2100 Rocket 3.9 01:29:59 10° N 01:36:10 75° E 01:37:00 65° SE
Cosmos 2221 3.1 01:40:45 10° N 01:44:16 53° NNE 01:44:16 53° NNE
Cosmos 2061 Rocket 4.0 01:39:34 10° N 01:45:49 75° E 01:46:49 62° SE
Cosmos 2084 Rocket 4.4 01:49:03 43° NNE 01:49:03 43° NNE 01:51:48 10° NNE
CZ-2C R/B 4.1 01:43:12 10° N 01:47:50 27° WNW 01:49:10 25° W
Landsat 5 4.2 01:53:03 52° NW 01:53:03 52° NW 01:56:41 10° NNW
Cosmos 2219 Rocket 3.9 01:48:40 10° N 01:53:33 29° NE 01:57:55 12° ESE
Cosmos 1674 3.7 02:05:00 45° NNE 02:05:00 45° NNE 02:07:50 10° NNE
Meteor 2-1 Rocket 4.4 01:58:31 10° NNW 02:04:17 58° W 02:04:36 57° WSW
Cosmos 2123 Rocket 4.2 02:03:10 50° SE 02:04:25 60° E 02:10:30 10° NNE
Meteor 2-17 Rocket 4.3 02:00:03 10° NNW 02:06:09 75° W 02:06:54 66° SSW
Cosmos 1190 Rocket 4.5 02:06:11 47° ESE 02:06:25 48° ESE 02:11:31 10° NNE
Cosmos 1992 Rocket 3.8 02:01:15 10° NNW 02:06:30 88° ENE 02:06:38 85° SE
Cosmos 2237 Rocket 4.3 02:04:12 10° N 02:08:35 23° NE 02:12:56 10° ESE
SL-16 R/B 3.7 02:04:15 10° NW 02:07:40 23° W 02:07:40 23° W
Cosmos 1076 Rocket 3.8 02:11:26 66° N 02:11:26 66° N 02:15:11 10° N
Meteor 1-21 Rocket 4.2 02:13:19 65° SSE 02:14:13 80° E 02:20:07 10° NNE
Cosmos 1340 Rocket 3.6 02:19:08 46° NNW 02:19:08 46° NNW 02:22:08 10° N
Cosmos 2228 Rocket 4.3 02:14:40 10° N 02:18:49 36° ENE 02:19:39 33° ESE
Cosmos 1300 4.1 02:18:34 10° NNE 02:22:03 32° ENE 02:22:08 32° E
ATLAS 3B CENTAUR R/B 4.4 02:05:07 10° WSW 02:25:23 41° S 02:33:22 10° ESE
Cosmos 2227 Rocket 3.6 02:24:40 23° SE 02:26:03 26° ESE 02:30:38 10° NE
Cosmos 1726 3.0 02:24:38 10° N 02:27:56 45° ENE 02:27:56 45° ENE
Cosmos 1242 Rocket 3.6 02:25:08 10° N 02:27:49 44° NNE 02:27:49 44° NNE
Cosmos 2322 4.0 02:25:56 10° NW 02:31:06 47° W 02:31:06 47° W
Cosmos 2237 4.1 02:26:29 10° NNW 02:32:08 65° WSW 02:32:34 63° SW
Cosmos 1725 Rocket 3.9 02:26:06 10° N 02:32:28 87° W 02:34:10 52° S
Meteor 2-2 Rocket 4.5 02:27:43 10° N 02:33:19 64° ENE 02:35:10 41° SE
Lacrosse 5 rocket 3.3 02:29:22 10° WNW 02:31:15 22° WNW 02:31:15 22° WNW
SL-08 R/B 4.5 02:33:42 10° NNW 02:39:44 64° W 02:40:57 53° SW
ERBS 3.8 02:46:17 32° ENE 02:46:17 32° ENE 02:48:24 10° NE
Cosmos 2219 3.2 02:44:22 55° SW 02:45:30 71° WNW 02:51:08 10° NNE
COSMOS 2428 2.6 02:40:09 10° NNW 02:45:52 68° WSW 02:46:52 57° SSW
BREEZE-M DEB (TANK) 4.5 02:40:49 25° SW 02:48:49 74° SSE 02:53:28 10° ENE
USA 234 3.8 02:50:01 36° WSW 02:50:01 36° WSW 02:55:25 10° WNW
Meteor 2-10 4.2 02:45:38 10° N 02:50:43 65° ENE 02:52:36 38° SE
Cosmos 2360 Rocket 3.4 02:47:37 10° NW 02:51:29 26° W 02:51:29 26° W
PSLV R/B 4.3 02:50:26 10° N 02:54:21 37° WNW 02:54:22 37° WNW
Resurs 1-4 Rocket 3.5 02:49:47 10° NE 02:54:26 30° E 02:57:02 20° SE
H-2A R/B 4.2 02:52:18 10° NNW 02:55:33 22° WNW 02:55:44 22° WNW
Cosmos 2333 4.2 02:49:56 10° NNW 02:55:36 63° WSW 02:56:43 52° SSW
Lacrosse 5 3.6 02:53:18 15° WNW 02:56:24 27° NNW 03:00:43 10° NNE
ISS -1.4 02:55:27 10° NW 02:58:15 25° NNE 03:01:02 10° E
Cosmos 1408 Rocket 4.2 02:58:52 40° WNW 02:58:52 40° WNW 03:02:58 10° N
NOSS 2-1 (D) 4.1 03:00:57 39° ESE 03:00:58 39° ESE 03:04:49 10° NE
NOSS 2-1 (C) 4.1 03:01:06 38° ESE 03:01:08 38° ESE 03:04:57 10° NE
NOSS 0 Rocket 4.0 02:56:36 10° NNW 03:02:49 78° ENE 03:07:52 16° SSE
Cosmos 1140 Rocket 3.8 03:01:21 43° SSE 03:02:50 59° ESE 03:07:58 10° NNE
ATLAS 2AS CENTAUR R/B 2.9 02:55:58 10° NW 03:04:03 86° WSW 03:11:28 10° SSE
Cosmos 1766 Rocket 4.5 03:04:06 34° WNW 03:04:08 34° WNW 03:08:09 10° N
Cosmos 1500 Rocket 3.5 03:04:07 62° SSE 03:04:48 79° E 03:09:15 10° N
Cosmos 1455 4.4 03:02:11 10° NNE 03:05:21 23° ENE 03:08:03 12° SE
CZ-2D R/B 3.2 03:00:43 10° NNE 03:05:31 37° E 03:08:08 23° SSE
Cosmos 614 Rocket 4.5 03:05:04 36° SSE 03:06:47 51° ESE 03:11:52 10° NNE
Aureole 2 Rocket 3.8 03:03:23 10° N 03:07:15 45° ENE 03:09:38 21° SE
IRS-P3 Rocket 4.5 03:03:05 10° NNE 03:08:21 90° WNW 03:09:55 47° SSW
Helios 1A Rocket 3.8 03:04:58 10° N 03:08:49 36° WNW 03:09:02 36° WNW
ADEOS Rocket 3.9 03:02:58 10° NNE 03:10:18 60° E 03:15:15 24° S
NOSS 3-3 (A) 3.9 03:08:46 42° SSW 03:11:03 90° N 03:17:44 10° NE
NOSS 3-3 (C) 3.9 03:08:51 42° SSW 03:11:09 89° ESE 03:17:50 10° NE
Meteor 2-12 Rocket 4.4 03:07:20 10° N 03:13:31 89° W 03:16:40 31° S
SL-16 R/B 2.9 03:09:45 13° SSE 03:15:08 64° ENE 03:21:15 10° N
Cosmos 2333 Rocket 2.1 03:13:11 10° NNW 03:18:54 78° WSW 03:22:07 27° SSE
Cosmos 1703 3.7 03:18:27 42° SE 03:19:23 55° E 03:23:13 10° NNE
CBERS-1 4.0 03:17:04 10° N 03:22:10 73° WNW 03:23:53 42° SSW
SL-8 R/B 3.9 03:20:26 36° W 03:22:19 66° NNW 03:27:06 10° ENE
IRS-1C 4.1 03:17:03 10° NNE 03:22:25 87° ESE 03:24:35 38° SSW
Cosmos 2058 2.8 03:21:42 54° S 03:22:34 83° E 03:26:42 10° N
SL-08 R/B 3.4 03:21:48 44° SSW 03:23:13 64° WSW 03:28:10 10° NNW
NOSS 2-1 (E) 3.4 03:23:16 54° SSE 03:23:51 63° ESE 03:28:03 10° NE
Cosmos 1515 Rocket 3.7 03:20:05 10° NNW 03:24:25 55° W 03:25:03 50° SW
Cosmos 1743 Rocket 4.1 03:24:58 41° WSW 03:25:38 44° WNW 03:29:54 10° N
SL-14 R/B 3.9 03:27:06 39° W 03:27:25 40° WNW 03:31:16 10° N
Cosmos 1954 Rocket 4.1 03:27:32 40° SW 03:29:20 64° WNW 03:34:35 10° NNE
UNK 3.9 03:27:05 24° SSE 03:29:51 73° ENE 03:34:28 10° N
ARIANE 5 R/B 2.9 03:25:55 10° NNE 03:30:58 59° E 03:33:41 26° S
Cosmos 407 Rocket 4.5 03:29:58 27° W 03:31:39 34° WNW 03:36:20 10° N
Cosmos 2297 Rocket 2.3 03:29:46 33° S 03:32:22 73° ESE 03:38:01 10° NNE
Cosmos 1023 Rocket 4.5 03:30:33 39° SW 03:32:30 74° WNW 03:37:44 10° NNE
GPS 2-04 Rocket1 3.6 03:33:55 33° SSE 03:33:55 33° SSE 03:37:04 10° ESE
AQUA 3.9 03:28:35 10° N 03:33:18 61° WNW 03:34:53 39° SW
Cosmos 1980 3.6 03:27:55 10° NNW 03:33:38 77° WSW 03:38:13 16° SSE
Cosmos 1626 2.0 03:35:14 52° S 03:36:05 89° E 03:39:50 10° N
Cosmos 2219 Rocket 2.6 03:32:18 10° NW 03:37:40 44° WSW 03:39:34 32° SSW
UNKNOWN OBJECT B 4.3 03:34:44 10° NNE 03:38:23 32° E 03:40:55 16° SSE
ERS-1 4.5 03:40:20 10° NNE 03:45:27 83° WNW 03:48:10 29° SSW
Cosmos 2034 Rocket 4.2 03:41:43 10° N 03:48:05 75° E 03:54:27 10° SSE
Cosmos 1633 Rocket 4.3 03:44:55 13° SSE 03:48:27 37° E 03:52:29 10° NNE
Lacrosse 4 Rocket 3.2 03:47:15 14° SSE 03:49:49 24° ESE 03:53:10 10° NE
SL-16 R/B 2.7 03:46:46 10° NNW 03:52:25 60° ENE 03:58:00 10° SE
Sich 1 3.8 03:49:35 17° SSE 03:52:48 50° E 03:57:02 10° NNE
Cosmos 2237 Rocket 2.2 03:47:31 10° NNW 03:53:03 58° WSW 03:57:42 14° S
MOS 1 Rocket 4.2 03:55:08 10° NNE 04:00:08 52° E 04:05:09 11° S
CZ-2D R/B 4.2 03:56:15 10° NNE 04:00:10 49° E 04:03:18 15° S
NOSS 7 (H) 4.3 04:00:04 39° SW 04:01:10 78° NW 04:04:32 10° NNE
Cosmos 2151 4.1 04:01:28 24° WSW 04:02:40 28° WNW 04:06:21 10° NNW
Spot 4 Rocket 4.2 03:57:43 10° N 04:02:46 58° WNW 04:05:44 24° SW
Tsikada Rocket 4.2 03:57:26 13° S 04:03:10 74° E 04:09:35 10° N
DELTA 2 R/B (1) 3.9 04:03:06 25° SW 04:06:02 49° SSE 04:11:22 10° E
Cosmos 2208 Rocket 3.9 04:03:37 10° NNW 04:08:48 74° WSW 04:14:00 10° S
Cosmos 1151 Rocket 4.3 04:06:18 10° NW 04:09:43 23° W 04:10:41 21° WSW
Cosmos 2227 Rocket 2.8 04:06:29 22° WSW 04:09:48 45° WNW 04:15:15 10° NNE
VEP-3 4.5 04:03:49 10° WSW 04:11:49 19° SSW 04:16:16 10° SSE
Cosmos 2242 Rocket 4.4 04:12:29 10° N 04:16:52 52° E 04:21:16 10° SSE
COBE Rocket 4.4 04:14:19 10° N 04:18:40 39° WNW 04:21:22 20° SW
IRS-1D 4.1 04:13:48 10° N 04:18:54 47° WNW 04:22:27 19° SW
ERBS 4.5 04:19:35 11° WNW 04:21:59 19° NNW 04:24:31 10° NNE
Transit 2A Rocket 4.5 04:19:42 21° SW 04:22:29 79° WNW 04:26:51 10° NNE
Cosmos 468 Rocket 4.3 04:17:46 10° NNW 04:22:59 70° ENE 04:28:06 10° SSE
Cosmos 1707 Rocket 3.6 04:20:37 10° NNW 04:24:55 58° W 04:29:06 11° S
BREEZE M DEB (TANK) 4.5 04:26:58 10° S 04:28:31 13° SE 04:29:49 10° ESE
USA 102 3.9 04:27:05 10° N 04:29:53 47° WNW 04:31:46 22° SW
Resurs 1-4 Rocket 3.0 04:29:29 10° N 04:34:15 34° WNW 04:38:08 14° SW
ISS -3.8 04:31:42 10° WNW 04:34:55 53° SW 04:38:06 10° SE
BREEZE-M R/B 4.3 04:33:21 13° SSW 04:39:06 39° SSE 04:42:37 10° ENE
Cosmos 1666 Rocket 4.0 04:35:52 15° SSW 04:39:19 47° WNW 04:43:37 10° N
Cosmos 1455 3.6 04:37:53 10° NW 04:40:56 22° W 04:43:01 15° SW
Lacrosse 5 4.5 04:38:23 10° NW 04:40:58 14° N 04:43:34 10° NNE
Cosmos 1869 3.7 04:37:39 10° NNW 04:41:30 44° W 04:45:19 10° SSW
Cosmos 1862 Rocket 4.0 04:39:07 10° N 04:43:26 64° E 04:47:43 10° SSE
Cosmos 1814 Rocket 4.3 04:38:38 10° NNW 04:44:00 78° ENE 04:49:21 10° SSE
CZ-2D R/B 3.2 04:41:04 10° N 04:45:27 28° WNW 04:49:29 12° WSW
ADEOS II 2.9 04:41:17 10° NNE 04:46:25 52° E 04:51:32 10° S
Cosmos 1763 Rocket 4.0 04:43:34 10° NNW 04:48:49 65° ENE 04:53:56 10° SSE
Cosmos 1933 Rocket 3.7 04:44:44 10° S 04:49:11 79° E 04:53:40 10° N
ATLAS 2AS CENTAUR R/B 4.2 04:49:07 10° WNW 04:53:50 17° WSW 04:58:21 10° SW
NOSS 3-4 (A) 3.8 04:48:24 10° NW 04:55:28 76° WSW 05:03:00 10° SSE
NOSS 3-4 (C) 3.8 04:48:30 10° NW 04:55:34 77° WSW 05:03:06 10° SSE
Cosmos 1634 Rocket 4.0 04:50:27 10° N 04:56:40 82° W 05:02:49 10° S
Landsat 4 3.7 04:55:12 10° S 04:58:59 81° WSW 05:02:49 10° NNW
SL-16 R/B 3.8 04:54:52 10° SW 04:59:13 20° W 05:03:37 10° NW
PSLV R/B 3.9 04:58:37 10° NNE 05:02:41 89° ESE 05:06:38 10° SSW
USA 161 2.3 05:01:52 11° SW 05:03:06 17° W 05:04:31 10° NW
Okean O Rocket 1.9 04:59:10 10° NNE 05:03:32 69° ESE 05:07:50 10° S
USA 215 4.4 04:58:51 10° ENE 05:04:49 36° SE 05:10:43 10° SSW
Meteor 2-10 Rocket 3.5 05:00:15 10° N 05:05:18 90° SW 05:10:20 10° S
GP-B 3.2 05:01:55 10° N 05:06:22 85° E 05:10:49 10° S
ATLAS 3B CENTAUR R/B 3.8 05:01:33 10° WSW 05:09:06 22° SSW 05:13:03 10° SSE
ARIANE 5 R/B 4.2 05:06:16 10° NNW 05:09:35 18° WNW 05:12:53 10° WSW
GPS 2-04 Rocket1 4.1 05:09:16 10° WSW 05:12:33 22° SSW 05:15:54 10° SSE
UNKNOWN OBJECT B 4.5 05:09:42 10° NNW 05:12:39 20° WNW 05:15:34 10° WSW
Cosmos 1603 3.7 05:09:16 10° NNW 05:15:00 82° WSW 05:20:40 10° SSE
SL-24 R/B 4.5 05:10:28 10° NNE 05:15:02 88° ESE 05:20:20 10° SSW
Cosmos 1315 Rocket 3.9 05:11:08 10° S 05:15:03 48° E 05:18:56 10° NNE
Cosmos 2297 Rocket 3.9 05:13:08 10° W 05:17:01 19° NW 05:20:56 10° N
